K6OUA-11 Weather Reports


time (UTC)temp
F
wind
direction
speed
knots
gust
knots
rain 1hr
in
rain 24hr
in
rain mn
in
humidity
%
barometer
mb
20260831105149 62 261 0.0 0.0 0.00 0.00 0.00 89
20260831104949 62 261 0.0 0.0 0.00 0.00 0.00 89
20260831104747 63 261 0.0 0.0 0.00 0.00 0.00 89
20260831104544 63 261 0.0 0.0 0.00 0.00 0.00 89
20260831104342 62 261 0.0 0.0 0.00 0.00 0.00 89
20260831104140 62 261 0.0 3.5 0.00 0.00 0.00 89
20260831103938 62 261 0.0 3.5 0.00 0.00 0.00 89
20260831103736 63 261 0.0 2.6 0.00 0.00 0.00 89
20260831103534 63 261 0.0 2.6 0.00 0.00 0.00 89
20260831103334 62 302 3.5 2.6 0.00 0.00 0.00 89
20260831102928 62 288 0.0 0.0 0.00 0.00 0.00 88
20260831102726 62 288 0.0 2.6 0.00 0.00 0.00 88
20260831102325 62 288 0.0 2.6 0.00 0.00 0.00 88
20260831102122 62 293 1.7 0.0 0.00 0.00 0.00 88
20260831101919 62 285 0.0 0.0 0.00 0.00 0.00 88
20260831101717 62 285 0.0 0.0 0.00 0.00 0.00 88
20260831101515 63 285 0.0 0.0 0.00 0.00 0.00 88
20260831101315 63 285 0.0 0.0 0.00 0.00 0.00 88
20260831101113 63 285 0.0 0.0 0.00 0.00 0.00 88
20260831100911 63 285 0.0 0.0 0.00 0.00 0.00 88
20260831100709 63 285 0.0 0.0 0.00 0.00 0.00 88
20260831100506 63 285 0.0 0.0 0.00 0.00 0.00 88
20260831100304 63 285 0.0 0.0 0.00 0.00 0.00 88
20260831095900 63 285 0.0 0.0 0.00 0.00 0.00 88
20260831095659 63 285 0.0 0.0 0.00 0.00 0.00 88
20260831095458 63 285 0.0 0.0 0.00 0.00 0.00 88
20260831095256 63 285 0.0 0.0 0.00 0.00 0.00 88
20260831095052 63 285 0.0 0.0 0.00 0.00 0.00 88
20260831094852 63 285 0.0 0.0 0.00 0.00 0.00 88
20260831094648 63 285 0.0 0.0 0.00 0.00 0.00 88
20260831094447 63 285 0.0 0.0 0.00 0.00 0.00 88
20260831094245 63 285 0.0 0.0 0.00 0.00 0.00 88
20260831094043 63 285 0.0 0.0 0.00 0.00 0.00 88
20260831093841 63 285 0.0 0.0 0.00 0.00 0.00 88
20260831093639 63 285 0.0 0.0 0.00 0.00 0.00 87
20260831093437 63 285 0.0 0.0 0.00 0.00 0.00 87
20260831093237 63 285 0.0 0.0 0.00 0.00 0.00 87
20260831093035 63 285 0.0 0.0 0.00 0.00 0.00 87
20260831092833 63 285 0.0 0.0 0.00 0.00 0.00 87
20260831092631 63 285 0.0 0.0 0.00 0.00 0.00 87
20260831092427 63 285 0.0 0.0 0.00 0.00 0.00 87
20260831092226 63 285 0.0 0.0 0.00 0.00 0.00 87
20260831092024 63 285 0.0 0.0 0.00 0.00 0.00 87
20260831091823 64 285 0.0 0.0 0.00 0.00 0.00 87
20260831091620 64 285 0.0 0.0 0.00 0.00 0.00 87
20260831091419 64 285 0.0 0.0 0.00 0.00 0.00 87
20260831091014 64 285 0.0 0.0 0.00 0.00 0.00 87
20260831090812 64 285 0.0 0.0 0.00 0.00 0.00 87
20260831090610 64 285 0.0 0.0 0.00 0.00 0.00 87
20260831090408 64 285 0.0 0.0 0.00 0.00 0.00 87
20260831090206 64 285 0.0 0.0 0.00 0.00 0.00 87
20260831085803 64 285 0.0 0.0 0.00 0.00 0.00 86
20260831085601 64 285 0.0 0.0 0.00 0.00 0.00 86
20260831085401 64 285 0.0 0.0 0.00 0.00 0.00 86
20260831085157 64 285 0.0 0.0 0.00 0.00 0.00 86
20260831084955 64 285 0.0 0.0 0.00 0.00 0.00 86
20260831084753 64 285 0.0 0.0 0.00 0.00 0.00 86
20260831084551 64 285 0.0 0.0 0.00 0.00 0.00 86
20260831084349 64 285 0.0 0.0 0.00 0.00 0.00 86
20260831084147 64 285 0.0 0.0 0.00 0.00 0.00 86
20260831083744 64 285 0.0 0.0 0.00 0.00 0.00 86
20260831083542 64 285 0.0 0.0 0.00 0.00 0.00 86
20260831083340 64 285 0.0 0.0 0.00 0.00 0.00 86
20260831083138 64 285 0.0 0.9 0.00 0.00 0.00 86
20260831082936 64 285 0.0 0.9 0.00 0.00 0.00 86
20260831082734 65 285 0.0 1.7 0.00 0.00 0.00 86
20260831082532 65 285 0.0 1.7 0.00 0.00 0.00 86
20260831082330 65 288 0.0 1.7 0.00 0.00 0.00 86
20260831082128 65 292 0.9 0.0 0.00 0.00 0.00 86
20260831081926 65 264 0.0 0.0 0.00 0.00 0.00 85
20260831081725 65 264 0.0 0.0 0.00 0.00 0.00 86
20260831081523 65 264 0.0 0.0 0.00 0.00 0.00 86
20260831081321 65 264 0.0 0.0 0.00 0.00 0.00 86
20260831081119 65 264 0.0 2.6 0.00 0.00 0.00 86
20260831080917 65 264 0.0 2.6 0.00 0.00 0.00 86
20260831080715 65 264 0.0 4.3 0.00 0.00 0.00 86
20260831080513 65 264 0.0 4.3 0.00 0.00 0.00 86
20260831080311 65 298 1.7 4.3 0.00 0.00 0.00 86
20260831080109 65 286 3.5 5.2 0.00 0.00 0.00 86
20260831075907 65 291 2.6 5.2 0.00 0.00 0.00 86
20260831075705 65 279 2.6 5.2 0.00 0.00 0.00 86
20260831075504 65 291 3.5 5.2 0.00 0.00 0.00 86
20260831075302 65 310 3.5 5.2 0.00 0.00 0.00 86
20260831074656 65 281 4.3 5.2 0.00 0.00 0.00 85
20260831074454 65 334 1.7 5.2 0.00 0.00 0.00 84
20260831074252 65 291 4.3 5.2 0.00 0.00 0.00 84
20260831074050 66 298 3.5 6.1 0.00 0.00 0.00 84
20260831073848 66 278 3.5 6.1 0.00 0.00 0.00 83
20260831073647 66 303 2.6 6.1 0.00 0.00 0.00 82
20260831073445 66 310 2.6 6.1 0.00 0.00 0.00 82
20260831073243 66 279 5.2 5.2 0.00 0.00 0.00 82
20260831073041 66 309 3.5 5.2 0.00 0.00 0.00 81
20260831072839 66 300 3.5 5.2 0.00 0.00 0.00 80
20260831072637 66 302 4.3 4.3 0.00 0.00 0.00 80
20260831072435 66 288 4.3 4.3 0.00 0.00 0.00 80
20260831072233 66 296 3.5 4.3 0.00 0.00 0.00 80
20260831072031 66 288 3.5 4.3 0.00 0.00 0.00 80
20260831071830 66 286 3.5 4.3 0.00 0.00 0.00 80
20260831071426 66 295 3.5 4.3 0.00 0.00 0.00 79
20260831071224 66 295 3.5 0.0 0.00 0.00 0.00 79
20260831071022 66 281 3.5 0.0 0.00 0.00 0.00 78
20260831070820 67 279 0.0 0.0 0.00 0.00 0.00 79
20260831070618 67 279 0.0 1.7 0.00 0.00 0.00 79
20260831070214 67 279 0.0 1.7 0.00 0.00 0.00 79
20260831070012 67 282 0.9 1.7 0.00 0.00 0.00 80
20260831065811 66 274 1.7 1.7 0.00 0.00 0.00 80
20260831065609 66 281 1.7 2.6 0.00 0.00 0.00 79
20260831065407 66 278 1.7 2.6 0.00 0.00 0.00 79
20260831065205 66 284 1.7 2.6 0.00 0.00 0.00 79
20260831065003 66 295 2.6 2.6 0.00 0.00 0.00 79
20260831064801 66 289 2.6 2.6 0.00 0.00 0.00 79
20260831064559 66 282 0.0 0.0 0.00 0.00 0.00 80
20260831064357 66 282 0.0 0.0 0.00 0.00 0.00 80
20260831064155 66 282 0.0 0.0 0.00 0.00 0.00 80
20260831063953 66 282 0.0 0.0 0.00 0.00 0.00 80
20260831063751 66 282 0.0 0.0 0.00 0.00 0.00 80
20260831063348 66 282 0.0 0.0 0.00 0.00 0.00 80
20260831062944 66 282 0.0 0.0 0.00 0.00 0.00 80
20260831062742 66 282 0.0 0.0 0.00 0.00 0.00 80
20260831062540 66 282 0.0 0.0 0.00 0.00 0.00 80
20260831062338 66 282 0.0 0.0 0.00 0.00 0.00 79
20260831062136 66 282 0.0 0.0 0.00 0.00 0.00 79
20260831061934 66 282 0.0 0.0 0.00 0.00 0.00 79
20260831061733 66 282 0.0 0.0 0.00 0.00 0.00 79
20260831061530 66 282 0.0 0.0 0.00 0.00 0.00 79
20260831061129 66 282 0.0 0.0 0.00 0.00 0.00 79
20260831060925 66 282 0.0 0.0 0.00 0.00 0.00 78
20260831060723 66 282 0.0 0.0 0.00 0.00 0.00 78
20260831060521 67 282 0.0 0.0 0.00 0.00 0.00 78
20260831060319 67 282 0.0 0.0 0.00 0.00 0.00 78
20260831060117 67 282 0.0 0.0 0.00 0.00 0.00 78
20260831055915 67 282 0.0 0.0 0.00 0.00 0.00 78
20260831055713 67 282 0.0 0.0 0.00 0.00 0.00 78
20260831055309 67 282 0.0 0.0 0.00 0.00 0.00 78
20260831055108 67 282 0.0 0.0 0.00 0.00 0.00 78
20260831054906 67 282 0.0 0.0 0.00 0.00 0.00 78
20260831054704 67 282 0.0 0.0 0.00 0.00 0.00 78
20260831054502 67 282 0.0 0.0 0.00 0.00 0.00 78
20260831054300 67 282 0.0 0.0 0.00 0.00 0.00 78
20260831054058 67 282 0.0 0.0 0.00 0.00 0.00 78
20260831053856 67 282 0.0 0.0 0.00 0.00 0.00 78
20260831053654 67 282 0.0 0.0 0.00 0.00 0.00 78
20260831053452 67 282 0.0 0.0 0.00 0.00 0.00 78
20260831053251 67 282 0.0 0.0 0.00 0.00 0.00 77
20260831053049 67 282 0.0 0.0 0.00 0.00 0.00 76
20260831052847 68 282 0.0 0.0 0.00 0.00 0.00 76
20260831052645 68 282 0.0 0.0 0.00 0.00 0.00 76
20260831052443 68 282 0.0 0.0 0.00 0.00 0.00 76
20260831052241 68 282 0.0 0.0 0.00 0.00 0.00 76
20260831052039 68 282 0.0 0.0 0.00 0.00 0.00 76
20260831051837 68 282 0.0 0.0 0.00 0.00 0.00 76
20260831051635 68 282 0.0 0.0 0.00 0.00 0.00 76
20260831051433 68 282 0.0 0.0 0.00 0.00 0.00 76
20260831051231 68 282 0.0 0.0 0.00 0.00 0.00 75
20260831051030 68 282 0.0 0.0 0.00 0.00 0.00 75
20260831050828 69 282 0.0 0.0 0.00 0.00 0.00 75
20260831050626 68 282 0.0 0.0 0.00 0.00 0.00 75
20260831050424 68 282 0.0 0.0 0.00 0.00 0.00 75
20260831050222 69 282 0.0 0.0 0.00 0.00 0.00 75
20260831050020 69 282 0.0 0.0 0.00 0.00 0.00 75
20260831045818 69 282 0.0 0.0 0.00 0.00 0.00 75
20260831045616 69 282 0.0 0.0 0.00 0.00 0.00 75
20260831045414 69 282 0.0 0.0 0.00 0.00 0.00 75
20260831045212 69 282 0.0 1.7 0.00 0.00 0.00 75
20260831045010 69 282 0.0 1.7 0.00 0.00 0.00 74
20260831044809 69 282 0.0 1.7 0.00 0.00 0.00 75
20260831044607 69 282 0.0 4.3 0.00 0.00 0.00 75
20260831044203 69 295 2.6 4.3 0.00 0.00 0.00 75
20260831044001 69 299 1.7 4.3 0.00 0.00 0.00 75
20260831043759 69 281 3.5 4.3 0.00 0.00 0.00 75
20260831043557 69 288 2.6 4.3 0.00 0.00 0.00 75
20260831043355 69 288 4.3 4.3 0.00 0.00 0.00 75
20260831043153 69 285 3.5 3.5 0.00 0.00 0.00 74
20260831042951 69 277 2.6 3.5 0.00 0.00 0.00 74
20260831042749 69 285 3.5 3.5 0.00 0.00 0.00 74
20260831042547 69 286 1.7 4.3 0.00 0.00 0.00 74
20260831042345 69 292 2.6 4.3 0.00 0.00 0.00 74
20260831042143 69 274 3.5 3.5 0.00 0.00 0.00 73
20260831041941 70 286 0.0 3.5 0.00 0.00 0.00 73
20260831041739 70 282 0.9 4.3 0.00 0.00 0.00 73
20260831041538 70 293 1.7 4.3 0.00 0.00 0.00 73
20260831041336 70 279 2.6 4.3 0.00 0.00 0.00 73
20260831041134 70 284 3.5 4.3 0.00 0.00 0.00 73
20260831040932 70 289 2.6 4.3 0.00 0.00 0.00 72
20260831040730 70 274 4.3 3.5 0.00 0.00 0.00 72
20260831040528 70 275 2.6 3.5 0.00 0.00 0.00 72
20260831040326 70 289 3.5 3.5 0.00 0.00 0.00 71
20260831040124 71 288 1.7 6.1 0.00 0.00 0.00 70
20260831035922 71 281 1.7 6.1 0.00 0.00 0.00 70
20260831035720 71 286 2.6 6.1 0.00 0.00 0.00 70
20260831035518 71 285 4.3 6.1 0.00 0.00 0.00 70
20260831035316 71 299 2.6 6.1 0.00 0.00 0.00 70
20260831035114 71 274 4.3 4.3 0.00 0.00 0.00 69
20260831034912 71 279 4.3 4.3 0.00 0.00 0.00 69
20260831034508 71 300 1.7 3.5 0.00 0.00 0.00 68
20260831034306 72 284 4.3 3.5 0.00 0.00 0.00 68
20260831034104 72 291 3.5 3.5 0.00 0.00 0.00 67
20260831033902 72 299 2.6 3.5 0.00 0.00 0.00 67
20260831033700 72 296 2.6 1.7 0.00 0.00 0.00 67
20260831033458 71 302 2.6 1.7 0.00 0.00 0.00 67
20260831033256 72 289 0.9 1.7 0.00 0.00 0.00 67
20260831033054 72 222 0.0 0.0 0.00 0.00 0.00 67
20260831032650 72 222 0.0 0.0 0.00 0.00 0.00 67
20260831032448 72 222 0.0 0.0 0.00 0.00 0.00 66
20260831032246 72 222 0.0 0.0 0.00 0.00 0.00 67
20260831032044 72 222 0.0 0.9 0.00 0.00 0.00 66
20260831031842 72 222 0.0 0.9 0.00 0.00 0.00 66
20260831031640 72 222 0.0 0.9 0.00 0.00 0.00 66
20260831031438 72 222 0.0 0.9 0.00 0.00 0.00 66
20260831031236 72 209 0.9 0.0 0.00 0.00 0.00 65
20260831031035 72 209 0.0 0.0 0.00 0.00 0.00 64
20260831030833 73 209 0.0 0.0 0.00 0.00 0.00 64
20260831030631 73 209 0.0 0.0 0.00 0.00 0.00 64
20260831030429 73 209 0.0 0.0 0.00 0.00 0.00 63
20260831030227 73 209 0.0 0.0 0.00 0.00 0.00 63
20260831030025 73 209 0.0 0.0 0.00 0.00 0.00 63
20260831025823 73 209 0.0 0.0 0.00 0.00 0.00 62
20260831025621 73 209 0.0 1.7 0.00 0.00 0.00 62
20260831025419 73 209 0.0 1.7 0.00 0.00 0.00 62
20260831025217 74 209 0.0 0.0 0.00 0.00 0.00 62
20260831025015 74 209 0.0 0.0 0.00 0.00 0.00 61
20260831024813 74 216 0.0 0.0 0.00 0.00 0.00 61
20260831024611 74 216 0.0 0.0 0.00 0.00 0.00 60
20260831024411 74 216 0.0 0.0 0.00 0.00 0.00 60
20260831024207 75 216 0.0 0.0 0.00 0.00 0.00 60
20260831024005 75 216 0.0 0.0 0.00 0.00 0.00 59
20260831023803 75 216 0.0 0.0 0.00 0.00 0.00 59
20260831023601 75 216 0.0 0.0 0.00 0.00 0.00 59
20260831023359 75 216 0.0 0.0 0.00 0.00 0.00 59
20260831023157 75 216 0.0 0.0 0.00 0.00 0.00 59
20260831022955 75 216 0.0 0.0 0.00 0.00 0.00 59
20260831022753 75 216 0.0 0.0 0.00 0.00 0.00 58
20260831022551 75 216 0.0 0.0 0.00 0.00 0.00 58
20260831022349 76 216 0.0 0.0 0.00 0.00 0.00 58
20260831022147 76 216 0.0 2.6 0.00 0.00 0.00 58
20260831021945 76 216 0.0 2.6 0.00 0.00 0.00 58
20260831021743 76 216 0.0 2.6 0.00 0.00 0.00 57
20260831021541 76 216 0.0 2.6 0.00 0.00 0.00 57
20260831021339 76 248 0.0 2.6 0.00 0.00 0.00 57
20260831021138 76 198 0.0 3.5 0.00 0.00 0.00 57
20260831020936 77 257 0.0 3.5 0.00 0.00 0.00 57
20260831020734 77 257 0.0 4.3 0.00 0.00 0.00 56
20260831020532 77 237 0.0 4.3 0.00 0.00 0.00 56
20260831020330 77 285 2.6 4.3 0.00 0.00 0.00 56
20260831020128 77 270 0.0 4.3 0.00 0.00 0.00 56
20260831015724 77 291 3.5 5.2 0.00 0.00 0.00 56
20260831015522 77 258 0.9 5.2 0.00 0.00 0.00 56
20260831015118 77 288 3.5 5.2 0.00 0.00 0.00 55
20260831014916 78 215 0.9 5.2 0.00 0.00 0.00 55
20260831014714 78 268 5.2 3.5 0.00 0.00 0.00 55
20260831014512 78 270 1.7 3.5 0.00 0.00 0.00 55
20260831014310 78 264 0.0 3.5 0.00 0.00 0.00 55
20260831014110 78 289 0.9 7.0 0.00 0.00 0.00 55
20260831013906 78 254 0.9 7.0 0.00 0.00 0.00 55
20260831013704 78 272 2.6 7.0 0.00 0.00 0.00 55
20260831013504 78 257 2.6 7.0 0.00 0.00 0.00 54
20260831013300 78 241 5.2 7.0 0.00 0.00 0.00 54
20260831013058 79 270 3.5 8.7 0.00 0.00 0.00 54
20260831012856 79 255 3.5 8.7 0.00 0.00 0.00 54
20260831012654 79 275 5.2 7.0 0.00 0.00 0.00 54
20260831012452 79 303 6.1 7.0 0.00 0.00 0.00 54
20260831012250 79 272 5.2 7.0 0.00 0.00 0.00 54
20260831012048 79 288 4.3 7.0 0.00 0.00 0.00 54
20260831011644 80 270 3.5 4.3 0.00 0.00 0.00 53
20260831011443 80 275 5.2 4.3 0.00 0.00 0.00 53
20260831011038 79 265 0.0 9.6 0.00 0.00 0.00 54
20260831010637 79 274 5.2 10.4 0.00 0.00 0.00 55
20260831010231 79 261 9.6 10.4 0.00 0.00 0.00 54
20260831005827 79 262 5.2 10.4 0.00 0.00 0.00 55
20260831005626 79 258 3.5 11.3 0.00 0.00 0.00 55
20260831005423 79 270 8.7 11.3 0.00 0.00 0.00 55
20260831005221 79 262 7.8 12.2 0.00 0.00 0.00 54
20260831005019 79 248 7.0 12.2 0.00 0.00 0.00 54
20260831004817 79 264 8.7 12.2 0.00 0.00 0.00 53
20260831004615 80 253 4.3 13.0 0.00 0.00 0.00 54
20260831004413 80 278 8.7 13.0 0.00 0.00 0.00 54
20260831004009 80 271 9.6 13.9 0.00 0.00 0.00 54
20260831003807 80 277 7.0 13.9 0.00 0.00 0.00 53
20260831003605 80 271 9.6 13.0 0.00 0.00 0.00 53
20260831003403 80 258 7.8 13.0 0.00 0.00 0.00 53
20260831003000 80 248 7.8 9.6 0.00 0.00 0.00 53
20260831002758 81 270 11.3 9.6 0.00 0.00 0.00 53
20260831002556 81 255 7.0 13.0 0.00 0.00 0.00 52
20260831002354 81 251 5.2 13.0 0.00 0.00 0.00 52
20260831002153 81 277 7.8 11.3 0.00 0.00 0.00 53
20260831001950 81 264 7.8 11.3 0.00 0.00 0.00 53
20260831001748 81 264 7.0 11.3 0.00 0.00 0.00 52
20260831001546 81 246 7.0 11.3 0.00 0.00 0.00 53
20260831001344 81 279 7.0 11.3 0.00 0.00 0.00 53
20260831001142 81 257 10.4 12.2 0.00 0.00 0.00 53
20260831000940 81 262 7.0 12.2 0.00 0.00 0.00 52
20260831000740 81 251 6.1 13.0 0.00 0.00 0.00 52
20260831000536 82 264 6.1 13.0 0.00 0.00 0.00 52
20260831000336 82 253 8.7 13.0 0.00 0.00 0.00 52
20260830235930 82 264 7.8 11.3 0.00 0.00 0.00 52
20260830235731 82 258 8.7 12.2 0.00 0.00 0.00 51
20260830235528 83 279 7.0 12.2 0.00 0.00 0.00 50
20260830235324 83 265 7.8 12.2 0.00 0.00 0.00 50
20260830235122 83 265 7.8 12.2 0.00 0.00 0.00 50
20260830234920 83 241 8.7 12.2 0.00 0.00 0.00 50
20260830234718 83 240 7.8 10.4 0.00 0.00 0.00 49
20260830234519 84 262 6.1 10.4 0.00 0.00 0.00 49
20260830234315 83 261 6.1 10.4 0.00 0.00 0.00 50
20260830234113 83 267 7.8 10.4 0.00 0.00 0.00 50
20260830233913 83 237 6.1 10.4 0.00 0.00 0.00 51
20260830233711 83 264 6.1 9.6 0.00 0.00 0.00 51
20260830233546 83 255 7.8 9.6 0.00 0.00 0.00 51
20260830233508 83 255 7.8 9.6 0.00 0.00 0.00 51
20260830233305 83 247 5.2 9.6 0.00 0.00 0.00 51
20260830233105 83 275 4.3 10.4 0.00 0.00 0.00 50
20260830232903 84 255 7.8 10.4 0.00 0.00 0.00 49
20260830232701 84 277 6.1 13.9 0.00 0.00 0.00 49
20260830232457 84 260 7.0 13.9 0.00 0.00 0.00 50
20260830232255 83 268 7.8 13.9 0.00 0.00 0.00 50
20260830232053 83 274 7.8 13.9 0.00 0.00 0.00 50
20260830231851 83 229 7.8 13.9 0.00 0.00 0.00 50
20260830231651 83 258 9.6 13.9 0.00 0.00 0.00 50
20260830231247 84 244 9.6 9.6 0.00 0.00 0.00 49
20260830231043 84 265 7.0 9.6 0.00 0.00 0.00 48
20260830230843 84 267 11.3 9.6 0.00 0.00 0.00 48
20260830230639 84 255 5.2 9.6 0.00 0.00 0.00 49
20260830230439 84 281 5.2 9.6 0.00 0.00 0.00 48
20260830230237 84 253 8.7 10.4 0.00 0.00 0.00 49
20260830230035 84 258 6.1 10.4 0.00 0.00 0.00 49
20260830225833 84 261 6.1 10.4 0.00 0.00 0.00 48
20260830225630 84 258 5.2 11.3 0.00 0.00 0.00 48
20260830225428 84 258 6.1 11.3 0.00 0.00 0.00 49
20260830225227 84 277 5.2 7.8 0.00 0.00 0.00 49
20260830225025 84 262 7.0 7.8 0.00 0.00 0.00 50
20260830224621 84 261 3.5 9.6 0.00 0.00 0.00 51
20260830224420 84 272 5.2 9.6 0.00 0.00 0.00 50
20260830224217 84 265 4.3 8.7 0.00 0.00 0.00 50
20260830224016 84 240 1.7 8.7 0.00 0.00 0.00 49
20260830223814 85 265 1.7 8.7 0.00 0.00 0.00 49
20260830223610 85 248 6.1 10.4 0.00 0.00 0.00 48
20260830223410 85 248 6.1 10.4 0.00 0.00 0.00 47
20260830223206 86 277 7.0 11.3 0.00 0.00 0.00 47
20260830223006 86 286 5.2 11.3 0.00 0.00 0.00 47
20260830222804 86 288 3.5 11.3 0.00 0.00 0.00 47
20260830222603 86 270 7.8 10.4 0.00 0.00 0.00 46
20260830222400 86 282 7.8 10.4 0.00 0.00 0.00 47
20260830222158 86 268 4.3 9.6 0.00 0.00 0.00 46
20260830221956 86 248 5.2 9.6 0.00 0.00 0.00 46
20260830221755 86 268 5.2 9.6 0.00 0.00 0.00 46
20260830221351 85 264 5.2 9.6 0.00 0.00 0.00 47
20260830221149 85 278 2.6 11.3 0.00 0.00 0.00 48
20260830220946 85 270 7.8 11.3 0.00 0.00 0.00 48
20260830220745 85 251 5.2 10.4 0.00 0.00 0.00 49
20260830220543 84 257 8.7 10.4 0.00 0.00 0.00 48
20260830220139 84 267 7.0 9.6 0.00 0.00 0.00 49
20260830215935 84 270 6.1 9.6 0.00 0.00 0.00 49
20260830215736 84 258 2.6 11.3 0.00 0.00 0.00 50
20260830215329 84 260 3.5 11.3 0.00 0.00 0.00 50
20260830215127 84 278 4.3 10.4 0.00 0.00 0.00 49
20260830214927 85 260 7.0 10.4 0.00 0.00 0.00 49
20260830214725 85 247 4.3 13.0 0.00 0.00 0.00 49
20260830214523 84 230 6.1 13.0 0.00 0.00 0.00 50
20260830214321 84 262 5.2 13.0 0.00 0.00 0.00 50
20260830214120 84 270 8.7 11.3 0.00 0.00 0.00 50
20260830213917 84 257 7.0 11.3 0.00 0.00 0.00 50
20260830213513 84 260 11.3 12.2 0.00 0.00 0.00 50
20260830213311 84 258 6.1 12.2 0.00 0.00 0.00 50
20260830213110 84 222 4.3 10.4 0.00 0.00 0.00 51
20260830212908 84 274 5.2 10.4 0.00 0.00 0.00 50
20260830212705 84 268 7.8 10.4 0.00 0.00 0.00 51
20260830212504 83 270 7.0 10.4 0.00 0.00 0.00 51
20260830212305 83 255 3.5 10.4 0.00 0.00 0.00 51
20260830212100 83 225 4.3 13.0 0.00 0.00 0.00 50
20260830211858 83 265 6.1 13.0 0.00 0.00 0.00 50
20260830211454 83 271 6.1 11.3 0.00 0.00 0.00 51
20260830211252 83 255 3.5 11.3 0.00 0.00 0.00 51
20260830211050 83 268 7.0 10.4 0.00 0.00 0.00 51
20260830210646 83 258 7.8 13.0 0.00 0.00 0.00 52
20260830210442 83 255 4.3 13.0 0.00 0.00 0.00 52
20260830210240 83 253 7.8 13.9 0.00 0.00 0.00 52
20260830210038 83 279 6.1 13.9 0.00 0.00 0.00 51
20260830205636 82 258 9.6 12.2 0.00 0.00 0.00 53
20260830205432 83 288 7.0 12.2 0.00 0.00 0.00 53
20260830205233 83 285 7.0 13.9 0.00 0.00 0.00 52
20260830204828 84 250 9.6 13.9 0.00 0.00 0.00 51
20260830204627 84 250 7.8 13.9 0.00 0.00 0.00 50
20260830204425 84 268 7.0 13.9 0.00 0.00 0.00 50
20260830204223 84 279 7.0 14.8 0.00 0.00 0.00 50
20260830204020 85 268 4.3 14.8 0.00 0.00 0.00 50
20260830203819 84 258 7.8 14.8 0.00 0.00 0.00 50
20260830203615 84 239 7.0 14.8 0.00 0.00 0.00 50
20260830203415 84 254 9.6 14.8 0.00 0.00 0.00 50
20260830203011 85 265 7.8 14.8 0.00 0.00 0.00 50
20260830202809 85 268 7.0 14.8 0.00 0.00 0.00 49
20260830202606 84 250 7.0 14.8 0.00 0.00 0.00 49
20260830202405 84 267 7.0 14.8 0.00 0.00 0.00 50
20260830202203 84 286 7.8 12.2 0.00 0.00 0.00 49
20260830201757 85 254 7.0 12.2 0.00 0.00 0.00 48
20260830201557 85 279 8.7 13.0 0.00 0.00 0.00 48
20260830201355 85 234 9.6 13.0 0.00 0.00 0.00 48
20260830201153 85 270 7.0 11.3 0.00 0.00 0.00 48
20260830200951 85 247 7.8 11.3 0.00 0.00 0.00 47
20260830200750 86 279 7.0 11.3 0.00 0.00 0.00 47
20260830200547 85 257 4.3 10.4 0.00 0.00 0.00 48
20260830200345 85 278 3.5 10.4 0.00 0.00 0.00 48
20260830200142 85 272 7.8 10.4 0.00 0.00 0.00 49
20260830195940 84 251 2.6 10.4 0.00 0.00 0.00 50
20260830195740 83 265 4.3 10.4 0.00 0.00 0.00 52
20260830195336 83 288 5.2 10.4 0.00 0.00 0.00 51
20260830195134 83 271 5.2 11.3 0.00 0.00 0.00 51
20260830194930 83 248 7.8 11.3 0.00 0.00 0.00 50
20260830194528 84 241 9.6 10.4 0.00 0.00 0.00 52
20260830194326 83 264 6.1 10.4 0.00 0.00 0.00 51
20260830194125 83 270 7.8 11.3 0.00 0.00 0.00 50
20260830193920 84 260 7.8 11.3 0.00 0.00 0.00 50
20260830193718 84 240 2.6 14.8 0.00 0.00 0.00 49
20260830193516 84 271 5.2 14.8 0.00 0.00 0.00 49
20260830193316 84 255 6.1 14.8 0.00 0.00 0.00 50
20260830192912 84 270 11.3 13.0 0.00 0.00 0.00 49
20260830192708 84 239 8.7 13.0 0.00 0.00 0.00 50
20260830192507 84 271 7.8 13.0 0.00 0.00 0.00 50
20260830192307 84 261 10.4 13.0 0.00 0.00 0.00 51
20260830191701 84 268 7.0 12.2 0.00 0.00 0.00 49
20260830191459 84 247 6.1 12.2 0.00 0.00 0.00 50
20260830191257 83 264 6.1 12.2 0.00 0.00 0.00 51
20260830191055 83 248 6.1 11.3 0.00 0.00 0.00 51
20260830190651 83 239 8.7 13.0 0.00 0.00 0.00 51
20260830190449 83 264 10.4 13.0 0.00 0.00 0.00 51
20260830190247 83 246 6.1 13.0 0.00 0.00 0.00 51
20260830190045 83 274 9.6 13.0 0.00 0.00 0.00 51
20260830185843 83 282 5.2 13.0 0.00 0.00 0.00 52
20260830185639 83 274 9.6 12.2 0.00 0.00 0.00 53
20260830185437 82 270 8.7 12.2 0.00 0.00 0.00 52
20260830185237 83 257 8.7 13.0 0.00 0.00 0.00 52
20260830185035 82 257 7.0 13.0 0.00 0.00 0.00 52
20260830184831 82 265 6.1 13.0 0.00 0.00 0.00 52
20260830184631 82 268 7.8 13.0 0.00 0.00 0.00 52
20260830184429 82 267 8.7 13.0 0.00 0.00 0.00 52
20260830184024 83 251 9.6 11.3 0.00 0.00 0.00 52
20260830183824 83 267 6.1 11.3 0.00 0.00 0.00 52
20260830183622 82 281 4.3 11.3 0.00 0.00 0.00 53
20260830183418 82 254 10.4 11.3 0.00 0.00 0.00 53
20260830183217 82 272 9.6 11.3 0.00 0.00 0.00 53
20260830183014 82 275 6.1 11.3 0.00 0.00 0.00 53
20260830182812 82 265 7.8 11.3 0.00 0.00 0.00 54
20260830182610 82 261 8.7 10.4 0.00 0.00 0.00 54
20260830182208 82 247 9.6 9.6 0.00 0.00 0.00 53
20260830181804 82 296 4.3 9.6 0.00 0.00 0.00 53
20260830181156 83 284 6.1 9.6 0.00 0.00 0.00 51
20260830180956 83 292 2.6 9.6 0.00 0.00 0.00 51
20260830180753 83 275 7.8 9.6 0.00 0.00 0.00 50
20260830180552 84 267 7.0 8.7 0.00 0.00 0.00 49
20260830180350 84 260 7.8 8.7 0.00 0.00 0.00 49
20260830180147 84 257 4.3 7.8 0.00 0.00 0.00 49
20260830175946 84 292 4.3 7.8 0.00 0.00 0.00 49
20260830175744 84 295 4.3 8.7 0.00 0.00 0.00 49
20260830175541 84 261 1.7 8.7 0.00 0.00 0.00 50
20260830175340 83 261 6.1 8.7 0.00 0.00 0.00 50
20260830175139 83 258 7.0 9.6 0.00 0.00 0.00 49
20260830174936 83 279 3.5 9.6 0.00 0.00 0.00 50
20260830174734 83 288 4.3 8.7 0.00 0.00 0.00 50
20260830174533 83 260 2.6 8.7 0.00 0.00 0.00 51
20260830174329 82 295 1.7 8.7 0.00 0.00 0.00 51
20260830174129 83 260 6.1 7.8 0.00 0.00 0.00 51
20260830173925 82 282 5.2 7.8 0.00 0.00 0.00 52
20260830173725 82 286 4.3 8.7 0.00 0.00 0.00 51
20260830173523 83 291 0.9 8.7 0.00 0.00 0.00 51
20260830173321 83 250 6.1 8.7 0.00 0.00 0.00 50
20260830173119 84 265 7.8 5.2 0.00 0.00 0.00 49
20260830172915 84 277 2.6 5.2 0.00 0.00 0.00 48
20260830172511 84 112 0.0 3.5 0.00 0.00 0.00 48
20260830172311 84 112 0.0 3.5 0.00 0.00 0.00 47
20260830172109 84 112 0.0 4.3 0.00 0.00 0.00 47
20260830171907 84 120 0.9 4.3 0.00 0.00 0.00 47
20260830171501 84 126 0.9 5.2 0.00 0.00 0.00 48
20260830171259 83 127 2.6 5.2 0.00 0.00 0.00 48
20260830171059 83 149 2.6 4.3 0.00 0.00 0.00 48
20260830170858 83 113 3.5 4.3 0.00 0.00 0.00 48
20260830170655 83 144 0.0 5.2 0.00 0.00 0.00 49
20260830170454 83 125 2.6 5.2 0.00 0.00 0.00 50
20260830170252 82 125 2.6 5.2 0.00 0.00 0.00 52
20260830165644 81 64 0.0 4.3 0.00 0.00 0.00 54
20260830165443 81 64 0.0 4.3 0.00 0.00 0.00 54
20260830165242 80 119 2.6 5.2 0.00 0.00 0.00 54
20260830165040 80 130 0.9 5.2 0.00 0.00 0.00 55
20260830164836 80 126 1.7 5.2 0.00 0.00 0.00 55
20260830164636 80 139 2.6 6.1 0.00 0.00 0.00 56
20260830164435 80 161 2.6 6.1 0.00 0.00 0.00 56
20260830164230 79 99 3.5 6.1 0.00 0.00 0.00 56
20260830164030 79 120 3.5 6.1 0.00 0.00 0.00 57
20260830163826 79 136 3.5 6.1 0.00 0.00 0.00 57
20260830163626 79 106 4.3 5.2 0.00 0.00 0.00 57
20260830163424 79 112 1.7 5.2 0.00 0.00 0.00 58
20260830163220 79 143 1.7 4.3 0.00 0.00 0.00 59
20260830163018 79 92 4.3 4.3 0.00 0.00 0.00 59
20260830162816 78 136 1.7 4.3 0.00 0.00 0.00 60
20260830162614 78 99 2.6 3.5 0.00 0.00 0.00 61
20260830162414 78 109 2.6 3.5 0.00 0.00 0.00 60
20260830162212 78 116 1.7 2.6 0.00 0.00 0.00 60
20260830162008 78 112 0.9 2.6 0.00 0.00 0.00 60
20260830161807 78 116 1.7 2.6 0.00 0.00 0.00 60
20260830161605 78 125 0.9 3.5 0.00 0.00 0.00 61
20260830161405 78 126 0.9 3.5 0.00 0.00 0.00 61
20260830161203 77 105 2.6 1.7 0.00 0.00 0.00 61
20260830160959 77 123 1.7 1.7 0.00 0.00 0.00 62
20260830160758 77 66 0.0 1.7 0.00 0.00 0.00 64
20260830160557 76 94 0.0 0.0 0.00 0.00 0.00 65
20260830160355 76 213 0.0 0.0 0.00 0.00 0.00 66
20260830155951 76 213 0.0 0.0 0.00 0.00 0.00 66
20260830155748 76 213 0.0 0.0 0.00 0.00 0.00 66
20260830155547 76 213 0.0 3.5 0.00 0.00 0.00 65
20260830155343 76 213 0.0 3.5 0.00 0.00 0.00 66
20260830155141 76 285 2.6 0.0 0.00 0.00 0.00 65
20260830154941 76 265 0.0 0.0 0.00 0.00 0.00 66
20260830154535 75 254 0.0 1.7 0.00 0.00 0.00 67
20260830154333 75 254 0.0 1.7 0.00 0.00 0.00 68
20260830154131 75 254 0.0 1.7 0.00 0.00 0.00 68
20260830153929 75 254 0.0 1.7 0.00 0.00 0.00 68
20260830153729 75 310 0.9 2.6 0.00 0.00 0.00 68
20260830153527 75 84 0.0 2.6 0.00 0.00 0.00 69
20260830153325 74 84 0.0 2.6 0.00 0.00 0.00 70
20260830153123 74 77 0.0 2.6 0.00 0.00 0.00 70
20260830152921 74 99 0.0 2.6 0.00 0.00 0.00 70
20260830152719 74 147 1.7 0.0 0.00 0.00 0.00 71
20260830152515 73 142 0.0 0.0 0.00 0.00 0.00 71
20260830152315 73 68 0.0 0.0 0.00 0.00 0.00 73
20260830151910 72 68 0.0 0.0 0.00 0.00 0.00 75
20260830151709 72 68 0.0 0.0 0.00 0.00 0.00 76
20260830151508 71 68 0.0 0.0 0.00 0.00 0.00 77
20260830151305 70 68 0.0 0.0 0.00 0.00 0.00 78
20260830151103 70 68 0.0 0.0 0.00 0.00 0.00 80
20260830150902 69 68 0.0 0.0 0.00 0.00 0.00 80
20260830150700 69 68 0.0 1.7 0.00 0.00 0.00 81
20260830150456 69 68 0.0 1.7 0.00 0.00 0.00 81
20260830150256 69 68 0.0 1.7 0.00 0.00 0.00 82
20260830150054 68 68 0.0 1.7 0.00 0.00 0.00 82
20260830145851 68 119 0.9 1.7 0.00 0.00 0.00 83
20260830145448 68 248 0.0 0.0 0.00 0.00 0.00 84
20260830145246 68 248 0.0 0.0 0.00 0.00 0.00 85
20260830145045 67 248 0.0 0.0 0.00 0.00 0.00 85
20260830144842 67 248 0.0 0.0 0.00 0.00 0.00 85
20260830144639 67 248 0.0 0.0 0.00 0.00 0.00 85
20260830144439 67 248 0.0 0.0 0.00 0.00 0.00 85
20260830144236 67 248 0.0 0.0 0.00 0.00 0.00 85
20260830144035 67 248 0.0 0.0 0.00 0.00 0.00 85
20260830143831 67 248 0.0 0.0 0.00 0.00 0.00 86
20260830143629 67 248 0.0 0.0 0.00 0.00 0.00 86
20260830143227 66 248 0.0 0.0 0.00 0.00 0.00 86
20260830143025 66 248 0.0 0.0 0.00 0.00 0.00 86
20260830142824 66 248 0.0 0.0 0.00 0.00 0.00 86
20260830142622 65 248 0.0 0.0 0.00 0.00 0.00 86
20260830142419 65 248 0.0 0.0 0.00 0.00 0.00 87
20260830142016 65 248 0.0 0.0 0.00 0.00 0.00 87
20260830141814 65 248 0.0 0.0 0.00 0.00 0.00 88
20260830141410 65 248 0.0 2.6 0.00 0.00 0.00 88
20260830141206 65 248 0.0 0.0 0.00 0.00 0.00 88
20260830141004 65 286 0.9 0.0 0.00 0.00 0.00 88
20260830140803 65 291 0.0 0.0 0.00 0.00 0.00 88
20260830140601 65 291 0.0 0.0 0.00 0.00 0.00 89
20260830140401 65 291 0.0 0.0 0.00 0.00 0.00 88
20260830140159 65 291 0.0 0.0 0.00 0.00 0.00 88
20260830135955 65 291 0.0 0.0 0.00 0.00 0.00 88
20260830135755 65 291 0.0 0.0 0.00 0.00 0.00 88
20260830135551 64 291 0.0 0.0 0.00 0.00 0.00 88
20260830135351 64 291 0.0 0.0 0.00 0.00 0.00 88
20260830135147 64 291 0.0 0.0 0.00 0.00 0.00 88
20260830134947 64 291 0.0 0.0 0.00 0.00 0.00 88
20260830134745 64 291 0.0 0.0 0.00 0.00 0.00 88
20260830134543 64 291 0.0 0.0 0.00 0.00 0.00 88
20260830134342 64 291 0.0 0.0 0.00 0.00 0.00 88
20260830134140 64 291 0.0 0.0 0.00 0.00 0.00 88
20260830133938 64 291 0.0 0.0 0.00 0.00 0.00 88
20260830133736 65 291 0.0 0.0 0.00 0.00 0.00 88
20260830133330 65 291 0.0 0.0 0.00 0.00 0.00 88
20260830133128 65 291 0.0 0.0 0.00 0.00 0.00 88
20260830132928 65 291 0.0 0.0 0.00 0.00 0.00 89
20260830132726 65 291 0.0 0.0 0.00 0.00 0.00 89
20260830132523 65 291 0.0 0.0 0.00 0.00 0.00 89
20260830132120 65 291 0.0 0.0 0.00 0.00 0.00 88
20260830131716 65 291 0.0 0.0 0.00 0.00 0.00 88
20260830131515 65 291 0.0 0.0 0.00 0.00 0.00 88
20260830131111 65 291 0.0 0.0 0.00 0.00 0.00 88
20260830130909 65 291 0.0 0.0 0.00 0.00 0.00 88
20260830130707 65 291 0.0 0.0 0.00 0.00 0.00 89
20260830130101 65 291 0.0 0.0 0.00 0.00 0.00 88
20260830125859 65 291 0.0 0.0 0.00 0.00 0.00 88
20260830125656 65 291 0.0 0.0 0.00 0.00 0.00 88
20260830125455 65 291 0.0 0.0 0.00 0.00 0.00 88
20260830125254 65 291 0.0 0.0 0.00 0.00 0.00 88
20260830125054 65 291 0.0 0.0 0.00 0.00 0.00 88
20260830124848 65 291 0.0 0.0 0.00 0.00 0.00 88
20260830124648 65 291 0.0 0.0 0.00 0.00 0.00 88
20260830124446 65 291 0.0 0.0 0.00 0.00 0.00 88
20260830124245 65 291 0.0 0.0 0.00 0.00 0.00 88
20260830124042 65 291 0.0 0.0 0.00 0.00 0.00 88
20260830123840 65 291 0.0 0.0 0.00 0.00 0.00 88
20260830123639 65 291 0.0 0.0 0.00 0.00 0.00 88
20260830123438 65 291 0.0 0.0 0.00 0.00 0.00 88
20260830123235 65 291 0.0 0.0 0.00 0.00 0.00 88
20260830123033 65 291 0.0 0.0 0.00 0.00 0.00 88
20260830122831 65 291 0.0 0.0 0.00 0.00 0.00 88
20260830122627 65 291 0.0 0.0 0.00 0.00 0.00 88
20260830122427 65 291 0.0 0.0 0.00 0.00 0.00 88
20260830122225 65 291 0.0 0.0 0.00 0.00 0.00 88
20260830121821 65 291 0.0 0.0 0.00 0.00 0.00 88
20260830121619 65 291 0.0 0.0 0.00 0.00 0.00 88
20260830121418 65 291 0.0 0.0 0.00 0.00 0.00 88
20260830121216 65 291 0.0 0.0 0.00 0.00 0.00 88
20260830121012 66 291 0.0 0.0 0.00 0.00 0.00 88
20260830120812 66 291 0.0 0.0 0.00 0.00 0.00 88
20260830120610 66 291 0.0 0.0 0.00 0.00 0.00 88
20260830120408 65 291 0.0 0.0 0.00 0.00 0.00 88
20260830120206 66 291 0.0 0.0 0.00 0.00 0.00 88
20260830120004 66 291 0.0 0.0 0.00 0.00 0.00 88
20260830115802 66 291 0.0 0.0 0.00 0.00 0.00 88
20260830115600 66 291 0.0 0.0 0.00 0.00 0.00 88
20260830115359 66 291 0.0 0.0 0.00 0.00 0.00 87
20260830115157 65 291 0.0 0.0 0.00 0.00 0.00 87
20260830114954 66 291 0.0 0.0 0.00 0.00 0.00 87
20260830114551 66 291 0.0 0.0 0.00 0.00 0.00 87
20260830114349 66 291 0.0 0.0 0.00 0.00 0.00 87
20260830114147 66 291 0.0 0.0 0.00 0.00 0.00 88
20260830113945 66 291 0.0 0.0 0.00 0.00 0.00 88
20260830113743 66 291 0.0 0.0 0.00 0.00 0.00 87
20260830113541 66 291 0.0 0.0 0.00 0.00 0.00 87
20260830113339 66 291 0.0 0.0 0.00 0.00 0.00 87
20260830113137 66 291 0.0 0.0 0.00 0.00 0.00 87
20260830112936 66 291 0.0 0.0 0.00 0.00 0.00 87
20260830112734 66 291 0.0 0.0 0.00 0.00 0.00 87
20260830112328 66 291 0.0 0.0 0.00 0.00 0.00 87
20260830112126 66 291 0.0 0.0 0.00 0.00 0.00 87
20260830111926 66 291 0.0 0.0 0.00 0.00 0.00 87
20260830111724 66 291 0.0 0.0 0.00 0.00 0.00 87
20260830111521 66 291 0.0 0.0 0.00 0.00 0.00 87
20260830111321 66 291 0.0 0.0 0.00 0.00 0.00 87
20260830111118 66 291 0.0 0.0 0.00 0.00 0.00 86
20260830110915 66 291 0.0 0.0 0.00 0.00 0.00 86
20260830110714 66 291 0.0 0.0 0.00 0.00 0.00 86
20260830110513 66 291 0.0 0.0 0.00 0.00 0.00 86
20260830110311 66 291 0.0 0.0 0.00 0.00 0.00 86
20260830110109 66 291 0.0 0.0 0.00 0.00 0.00 86
20260830105907 66 291 0.0 0.0 0.00 0.00 0.00 86
20260830105706 66 291 0.0 0.0 0.00 0.00 0.00 86
20260830105300 66 291 0.0 0.0 0.00 0.00 0.00 86